User: anonymous   Login
Location: Unspecified
(0.0000°N, 0.0000°E)
Time: 10:33:11
(UTC+00:00)
Language:

METEOR M2-2 - Orbit

View from above orbital plane
View from above orbital plane
View from above satellite
View from above satellite

Ground track
Ground track

The orbit data is extracted from the following two-line orbital elements,

1 44387U 19038A   21296.17039529 -.00000020  00000-0  10357-4 0  9996
2 44387  98.6862 254.3115 0000406 180.5722 179.5458 14.23692625119643
Epoch (UTC): 23 October 2021 04:05:22
Eccentricity: 0.0000406
inclination: 98.6862°
perigee height: 812 km
apogee height: 813 km
right ascension of ascending node: 254.3115°
argument of perigee: 180.5722°
revolutions per day: 14.23692625
mean anomaly at epoch: 179.5458°
orbit number at epoch: 11964

The dashed part of the orbit path shows where the satellite is in the earth's shadow,  

DLR